| time (UTC) | temp C | wind direction | speed KPH | gust KPH | rain 1hr cm | rain 24hr cm | rain mn cm | humidity % | barometer mb |
| 20260505173508 | 15 | 273 | 0.0 | 4.8 | 0.00 | 0.00 | 0.00 | 78 | 1005.7 |
| 20260505173100 | 15 | 282 | 1.6 | 12.9 | 0.00 | 0.00 | 0.00 | 78 | 1008.1 |
| 20260505173007 | 15 | 273 | 0.0 | 1.6 | 0.00 | 0.00 | 0.00 | 78 | 1005.6 |
| 20260505172601 | 15 | 248 | 3.2 | 12.9 | 0.00 | 0.00 | 0.00 | 76 | 1008.1 |
| 20260505172507 | 15 | 273 | 0.0 | 1.6 | 0.00 | 0.00 | 0.00 | 77 | 1005.6 |
| 20260505172100 | 15 | 273 | 3.2 | 14.5 | 0.00 | 0.00 | 0.00 | 78 | 1008.1 |
| 20260505172006 | 15 | 269 | 0.0 | 0.0 | 0.00 | 0.00 | 0.00 | 79 | 1005.7 |
| 20260505171601 | 15 | 259 | 3.2 | 14.5 | 0.00 | 0.00 | 0.00 | 78 | 1008.1 |
| 20260505171507 | 15 | 269 | 0.0 | 0.0 | 0.00 | 0.00 | 0.00 | 79 | 1005.7 |
| 20260505171100 | 15 | 269 | 8.0 | 14.5 | 0.00 | 0.00 | 0.00 | 78 | 1008.3 |
| 20260505171006 | 15 | 269 | 0.0 | 1.6 | 0.00 | 0.00 | 0.00 | 79 | 1005.8 |
| 20260505170600 | 15 | 223 | 4.8 | 22.5 | 0.00 | 0.00 | 0.00 | 78 | 1008.2 |
| 20260505170512 | 15 | 269 | 0.0 | 1.6 | 0.00 | 0.00 | 0.00 | 79 | 1005.8 |
| 20260505170110 | 15 | 247 | 8.0 | 22.5 | 0.00 | 0.00 | 0.00 | 77 | 1008.2 |
| 20260505170004 | 15 | 263 | 0.0 | 6.4 | 0.00 | 0.00 | 0.00 | 77 | 1005.8 |
| 20260505165600 | 16 | 242 | 9.7 | 22.5 | 0.00 | 0.00 | 0.00 | 76 | 1008.2 |
| 20260505165504 | 16 | 263 | 0.0 | 6.4 | 0.00 | 0.00 | 0.00 | 76 | 1005.8 |
| 20260505165058 | 16 | 266 | 8.0 | 19.3 | 0.00 | 0.00 | 0.00 | 75 | 1008.2 |
| 20260505165005 | 16 | 288 | 0.0 | 8.0 | 0.00 | 0.00 | 0.00 | 76 | 1005.7 |
| 20260505164558 | 16 | 236 | 8.0 | 19.3 | 0.00 | 0.00 | 0.00 | 75 | 1008.2 |
| 20260505164504 | 16 | 277 | 1.6 | 11.3 | 0.00 | 0.00 | 0.00 | 75 | 1005.6 |
| 20260505164058 | 16 | 253 | 4.8 | 19.3 | 0.00 | 0.00 | 0.00 | 75 | 1008.1 |
| 20260505164002 | 16 | 292 | 1.6 | 11.3 | 0.00 | 0.00 | 0.00 | 76 | 1005.7 |
| 20260505163559 | 16 | 250 | 6.4 | 17.7 | 0.00 | 0.00 | 0.00 | 75 | 1008.1 |
| 20260505163502 | 16 | 283 | 0.0 | 4.8 | 0.00 | 0.00 | 0.00 | 76 | 1005.5 |
| 20260505163102 | 16 | 271 | 4.8 | 22.5 | 0.00 | 0.00 | 0.00 | 76 | 1008.1 |
| 20260505163003 | 16 | 294 | 0.0 | 4.8 | 0.00 | 0.00 | 0.00 | 76 | 1005.6 |
| 20260505162557 | 16 | 275 | 6.4 | 29.0 | 0.00 | 0.00 | 0.00 | 75 | 1008.1 |
| 20260505162503 | 16 | 295 | 1.6 | 6.4 | 0.00 | 0.00 | 0.00 | 75 | 1005.6 |
| 20260505162057 | 16 | 246 | 6.4 | 29.0 | 0.00 | 0.00 | 0.00 | 75 | 1008.2 |
| 20260505162001 | 16 | 277 | 0.0 | 6.4 | 0.00 | 0.00 | 0.00 | 76 | 1005.6 |
| 20260505161616 | 16 | 278 | 8.0 | 22.5 | 0.00 | 0.00 | 0.00 | 75 | 1008.2 |
| 20260505161503 | 16 | 269 | 0.0 | 6.4 | 0.00 | 0.00 | 0.00 | 76 | 1005.6 |
| 20260505161102 | 16 | 235 | 8.0 | 20.9 | 0.00 | 0.00 | 0.00 | 75 | 1008.2 |
| 20260505161001 | 16 | 281 | 0.0 | 6.4 | 0.00 | 0.00 | 0.00 | 76 | 1005.6 |
| 20260505160601 | 16 | 283 | 0.0 | 6.4 | 0.00 | 0.00 | 0.00 | 75 | 1005.6 |
| 20260505160558 | 16 | 242 | 9.7 | 22.5 | 0.00 | 0.00 | 0.00 | 75 | 1008.2 |
| 20260505160104 | 16 | 230 | 9.7 | 22.5 | 0.00 | 0.00 | 0.00 | 75 | 1008.2 |
| 20260505153107 | 16 | 263 | 6.4 | 24.1 | 0.00 | 0.00 | 0.00 | 76 | 1008.1 |
| 20260505153058 | 16 | 270 | 1.6 | 8.0 | 0.00 | 0.00 | 0.00 | 76 | 1005.5 |
| 20260505152604 | 17 | 263 | 8.0 | 27.4 | 0.00 | 0.00 | 0.00 | 76 | 1008.1 |
| 20260505152601 | 17 | 277 | 0.0 | 11.3 | 0.00 | 0.00 | 0.00 | 76 | 1005.5 |
| 20260505152058 | 17 | 286 | 12.9 | 33.8 | 0.00 | 0.00 | 0.00 | 75 | 1008.0 |
| 20260505151606 | 17 | 218 | 14.5 | 33.8 | 0.00 | 0.00 | 0.00 | 75 | 1007.9 |
| 20260505151557 | 17 | 246 | 1.6 | 8.0 | 0.00 | 0.00 | 0.00 | 75 | 1005.4 |
| 20260505151059 | 17 | 236 | 16.1 | 32.2 | 0.00 | 0.00 | 0.00 | 74 | 1007.7 |
| 20260505151056 | 17 | 272 | 1.6 | 8.0 | 0.00 | 0.00 | 0.00 | 74 | 1005.2 |
| 20260505150558 | 17 | 238 | 14.5 | 32.2 | 0.00 | 0.00 | 0.00 | 73 | 1007.6 |
| 20260505150556 | 17 | 252 | 1.6 | 14.5 | 0.00 | 0.00 | 0.00 | 74 | 1005.2 |
| 20260505140600 | 17 | 277 | 14.5 | 30.6 | 0.00 | 0.00 | 0.00 | 74 | 1006.2 |
| 20260505140550 | 17 | 252 | 4.8 | 12.9 | 0.00 | 0.00 | 0.00 | 74 | 1003.6 |
| 20260505140112 | 17 | 245 | 12.9 | 30.6 | 0.00 | 0.00 | 0.00 | 73 | 1006.1 |
| 20260505130107 | 17 | 223 | 14.5 | 27.4 | 0.00 | 0.00 | 0.00 | 73 | 1005.9 |
| 20260505125040 | 17 | 265 | 1.6 | 11.3 | 0.00 | 0.00 | 0.00 | 74 | 1003.4 |
| 20260505124558 | 16 | 258 | 12.9 | 25.7 | 0.00 | 0.00 | 0.00 | 74 | 1005.9 |
| 20260505124537 | 16 | 254 | 1.6 | 8.0 | 0.00 | 0.00 | 0.00 | 75 | 1003.5 |
| 20260505124059 | 16 | 191 | 11.3 | 29.0 | 0.00 | 0.00 | 0.00 | 75 | 1005.9 |
| 20260505124036 | 16 | 258 | 1.6 | 4.8 | 0.00 | 0.00 | 0.00 | 76 | 1003.5 |
| 20260505123601 | 16 | 267 | 8.0 | 29.0 | 0.00 | 0.00 | 0.00 | 76 | 1005.8 |
| 20260505123534 | 16 | 269 | 1.6 | 9.7 | 0.00 | 0.00 | 0.00 | 76 | 1003.4 |
| 20260505123059 | 16 | 216 | 9.7 | 27.4 | 0.00 | 0.00 | 0.00 | 75 | 1005.8 |
| 20260505123034 | 16 | 254 | 1.6 | 9.7 | 0.00 | 0.00 | 0.00 | 76 | 1003.4 |
| 20260505122559 | 16 | 234 | 11.3 | 27.4 | 0.00 | 0.00 | 0.00 | 75 | 1005.8 |
| 20260505122534 | 16 | 232 | 1.6 | 9.7 | 0.00 | 0.00 | 0.00 | 76 | 1003.4 |
| 20260505122059 | 16 | 231 | 14.5 | 37.0 | 0.00 | 0.00 | 0.00 | 75 | 1006.0 |
| 20260505122034 | 16 | 259 | 1.6 | 11.3 | 0.00 | 0.00 | 0.00 | 75 | 1003.5 |
| 20260505121630 | 16 | 233 | 14.5 | 37.0 | 0.00 | 0.00 | 0.00 | 75 | 1005.9 |
| 20260505121538 | 16 | 252 | 4.8 | 12.9 | 0.00 | 0.00 | 0.00 | 75 | 1003.3 |
| 20260505121058 | 16 | 243 | 11.3 | 27.4 | 0.00 | 0.00 | 0.00 | 75 | 1005.9 |
| 20260505121032 | 16 | 240 | 1.6 | 12.9 | 0.00 | 0.00 | 0.00 | 75 | 1003.6 |
| 20260505120600 | 16 | 253 | 8.0 | 22.5 | 0.00 | 0.00 | 0.00 | 75 | 1005.9 |
| 20260505120529 | 16 | 252 | 0.0 | 6.4 | 0.00 | 0.00 | 0.00 | 75 | 1003.4 |
| 20260505120100 | 16 | 205 | 11.3 | 22.5 | 0.00 | 0.00 | 0.00 | 75 | 1005.7 |
| 20260505120027 | 16 | 252 | 3.2 | 6.4 | 0.00 | 0.00 | 0.00 | 76 | 1003.2 |
| 20260505115600 | 16 | 237 | 6.4 | 22.5 | 0.00 | 0.00 | 0.00 | 75 | 1005.5 |
| 20260505115523 | 15 | 259 | 0.0 | 6.4 | 0.00 | 0.00 | 0.00 | 76 | 1003.0 |
| 20260505115100 | 15 | 218 | 9.7 | 22.5 | 0.00 | 0.00 | 0.00 | 76 | 1005.4 |
| 20260505115022 | 15 | 259 | 0.0 | 4.8 | 0.00 | 0.00 | 0.00 | 77 | 1003.0 |
| 20260505114602 | 15 | 226 | 8.0 | 20.9 | 0.00 | 0.00 | 0.00 | 76 | 1005.4 |
| 20260505114521 | 15 | 260 | 0.0 | 4.8 | 0.00 | 0.00 | 0.00 | 77 | 1002.9 |
| 20260505114059 | 15 | 227 | 6.4 | 20.9 | 0.00 | 0.00 | 0.00 | 76 | 1005.2 |
| 20260505114020 | 15 | 261 | 0.0 | 4.8 | 0.00 | 0.00 | 0.00 | 77 | 1002.6 |
| 20260505113559 | 15 | 229 | 8.0 | 22.5 | 0.00 | 0.00 | 0.00 | 76 | 1005.1 |
| 20260505113100 | 15 | 230 | 0.0 | 1.6 | 0.00 | 0.00 | 0.00 | 77 | 1002.4 |
| 20260505113058 | 15 | 213 | 9.7 | 22.5 | 0.00 | 0.00 | 0.00 | 76 | 1004.9 |
| 20260505112559 | 15 | 230 | 11.3 | 20.9 | 0.00 | 0.00 | 0.00 | 76 | 1004.8 |
| 20260505112550 | 15 | 230 | 0.0 | 1.6 | 0.00 | 0.00 | 0.00 | 77 | 1002.4 |
| 20260505112059 | 15 | 246 | 6.4 | 17.7 | 0.00 | 0.00 | 0.00 | 76 | 1004.8 |
| 20260505112049 | 15 | 227 | 0.0 | 1.6 | 0.00 | 0.00 | 0.00 | 77 | 1002.3 |
| 20260505111600 | 16 | 219 | 8.0 | 19.3 | 0.00 | 0.00 | 0.00 | 75 | 1004.6 |
| 20260505111549 | 16 | 227 | 0.0 | 1.6 | 0.00 | 0.00 | 0.00 | 76 | 1002.1 |
| 20260505111058 | 16 | 215 | 8.0 | 22.5 | 0.00 | 0.00 | 0.00 | 75 | 1004.6 |
| 20260505111047 | 16 | 227 | 0.0 | 1.6 | 0.00 | 0.00 | 0.00 | 76 | 1002.0 |
| 20260505110558 | 16 | 234 | 8.0 | 22.5 | 0.00 | 0.00 | 0.00 | 75 | 1004.5 |
| 20260505110546 | 16 | 227 | 0.0 | 3.2 | 0.00 | 0.00 | 0.00 | 76 | 1001.8 |
| 20260505102058 | 16 | 212 | 11.3 | 25.7 | 0.00 | 0.00 | 0.00 | 74 | 1003.9 |
| 20260505102039 | 16 | 213 | 0.0 | 6.4 | 0.00 | 0.00 | 0.00 | 75 | 1001.4 |
| 20260505101600 | 16 | 203 | 12.9 | 29.0 | 0.00 | 0.00 | 0.00 | 74 | 1003.8 |
| 20260505101538 | 16 | 233 | 1.6 | 8.0 | 0.00 | 0.00 | 0.00 | 74 | 1001.3 |
| 20260505101100 | 16 | 192 | 14.5 | 29.0 | 0.00 | 0.00 | 0.00 | 73 | 1003.8 |
| 20260505101038 | 16 | 219 | 0.0 | 8.0 | 0.00 | 0.00 | 0.00 | 73 | 1001.4 |
| 20260505100558 | 16 | 224 | 14.5 | 30.6 | 0.00 | 0.00 | 0.00 | 72 | 1003.8 |
| 20260505100536 | 16 | 223 | 1.6 | 8.0 | 0.00 | 0.00 | 0.00 | 72 | 1001.3 |
| 20260505100037 | 16 | 228 | 1.6 | 6.4 | 0.00 | 0.00 | 0.00 | 71 | 1001.3 |
| 20260505095558 | 17 | 207 | 12.9 | 30.6 | 0.00 | 0.00 | 0.00 | 70 | 1003.7 |
| 20260505095535 | 17 | 227 | 0.0 | 6.4 | 0.00 | 0.00 | 0.00 | 70 | 1001.2 |
| 20260505095101 | 16 | 215 | 12.9 | 22.5 | 0.00 | 0.00 | 0.00 | 70 | 1003.7 |
| 20260505095035 | 16 | 240 | 1.6 | 6.4 | 0.00 | 0.00 | 0.00 | 71 | 1001.3 |
| 20260505094558 | 16 | 225 | 9.7 | 22.5 | 0.00 | 0.00 | 0.00 | 71 | 1003.7 |
| 20260505094535 | 16 | 224 | 0.0 | 3.2 | 0.00 | 0.00 | 0.00 | 72 | 1001.2 |
| 20260505094100 | 16 | 218 | 6.4 | 22.5 | 0.00 | 0.00 | 0.00 | 72 | 1003.6 |
| 20260505094035 | 16 | 215 | 0.0 | 3.2 | 0.00 | 0.00 | 0.00 | 73 | 1001.1 |
| 20260505093600 | 16 | 244 | 8.0 | 20.9 | 0.00 | 0.00 | 0.00 | 73 | 1003.5 |
| 20260505093535 | 16 | 200 | 0.0 | 4.8 | 0.00 | 0.00 | 0.00 | 73 | 1001.0 |
| 20260505093101 | 16 | 232 | 8.0 | 25.7 | 0.00 | 0.00 | 0.00 | 73 | 1003.5 |
| 20260505093045 | 16 | 223 | 0.0 | 4.8 | 0.00 | 0.00 | 0.00 | 73 | 1000.8 |
| 20260505092603 | 16 | 191 | 14.5 | 25.7 | 0.00 | 0.00 | 0.00 | 72 | 1003.4 |
| 20260505092534 | 16 | 237 | 0.0 | 4.8 | 0.00 | 0.00 | 0.00 | 73 | 1000.8 |
| 20260505092100 | 16 | 207 | 8.0 | 20.9 | 0.00 | 0.00 | 0.00 | 73 | 1003.3 |
| 20260505092033 | 16 | 226 | 0.0 | 4.8 | 0.00 | 0.00 | 0.00 | 73 | 1000.7 |
| 20260505091600 | 17 | 221 | 9.7 | 32.2 | 0.00 | 0.00 | 0.00 | 72 | 1003.2 |
| 20260505091532 | 17 | 238 | 0.0 | 4.8 | 0.00 | 0.00 | 0.00 | 73 | 1000.7 |
| 20260505091059 | 17 | 225 | 11.3 | 32.2 | 0.00 | 0.00 | 0.00 | 72 | 1003.2 |
| 20260505091032 | 17 | 249 | 0.0 | 4.8 | 0.00 | 0.00 | 0.00 | 73 | 1000.6 |
| 20260505090600 | 17 | 209 | 12.9 | 32.2 | 0.00 | 0.00 | 0.00 | 72 | 1003.1 |
| 20260505090531 | 17 | 155 | 1.6 | 9.7 | 0.00 | 0.00 | 0.00 | 73 | 1000.5 |
| 20260505090107 | 17 | 226 | 14.5 | 33.8 | 0.00 | 0.00 | 0.00 | 72 | 1003.0 |
| 20260505090033 | 17 | 213 | 3.2 | 9.7 | 0.00 | 0.00 | 0.00 | 73 | 1000.6 |
| 20260505085559 | 17 | 198 | 11.3 | 33.8 | 0.00 | 0.00 | 0.00 | 72 | 1003.3 |
| 20260505085535 | 17 | 221 | 0.0 | 6.4 | 0.00 | 0.00 | 0.00 | 73 | 1000.7 |
| 20260505085100 | 17 | 240 | 12.9 | 32.2 | 0.00 | 0.00 | 0.00 | 71 | 1003.4 |
| 20260505085030 | 17 | 228 | 1.6 | 9.7 | 0.00 | 0.00 | 0.00 | 72 | 1000.8 |
| 20260505084559 | 17 | 232 | 14.5 | 37.0 | 0.00 | 0.00 | 0.00 | 71 | 1003.1 |
| 20260505084531 | 17 | 215 | 3.2 | 8.0 | 0.00 | 0.00 | 0.00 | 71 | 1000.5 |
| 20260505084059 | 17 | 231 | 14.5 | 37.0 | 0.00 | 0.00 | 0.00 | 70 | 1003.0 |
| 20260505084028 | 17 | 198 | 3.2 | 8.0 | 0.00 | 0.00 | 0.00 | 71 | 1000.5 |
| 20260505083557 | 17 | 223 | 11.3 | 24.1 | 0.00 | 0.00 | 0.00 | 70 | 1002.8 |
| 20260505083531 | 17 | 244 | 1.6 | 9.7 | 0.00 | 0.00 | 0.00 | 70 | 1000.4 |
| 20260505083105 | 17 | 204 | 9.7 | 25.7 | 0.00 | 0.00 | 0.00 | 70 | 1002.9 |
| 20260505083031 | 17 | 184 | 0.0 | 6.4 | 0.00 | 0.00 | 0.00 | 71 | 1000.5 |
| 20260505082557 | 17 | 240 | 12.9 | 27.4 | 0.00 | 0.00 | 0.00 | 70 | 1002.7 |
| 20260505082527 | 17 | 224 | 0.0 | 6.4 | 0.00 | 0.00 | 0.00 | 70 | 1000.3 |
| 20260505082100 | 17 | 233 | 12.9 | 27.4 | 0.00 | 0.00 | 0.00 | 70 | 1002.7 |
| 20260505082027 | 17 | 211 | 0.0 | 8.0 | 0.00 | 0.00 | 0.00 | 70 | 1000.3 |
| 20260505081603 | 17 | 219 | 11.3 | 24.1 | 0.00 | 0.00 | 0.00 | 70 | 1002.8 |
| 20260505081529 | 17 | 220 | 1.6 | 6.4 | 0.00 | 0.00 | 0.00 | 71 | 1000.3 |
| 20260505081058 | 17 | 200 | 11.3 | 24.1 | 0.00 | 0.00 | 0.00 | 71 | 1002.7 |
| 20260505081027 | 17 | 219 | 0.0 | 6.4 | 0.00 | 0.00 | 0.00 | 71 | 1000.3 |
| 20260505080603 | 17 | 265 | 9.7 | 24.1 | 0.00 | 0.00 | 0.00 | 71 | 1002.8 |
| 20260505080526 | 17 | 205 | 0.0 | 4.8 | 0.00 | 0.00 | 0.00 | 72 | 1000.3 |
| 20260505080100 | 17 | 209 | 11.3 | 24.1 | 0.00 | 0.00 | 0.00 | 71 | 1002.7 |
| 20260505080031 | 17 | 212 | 0.0 | 4.8 | 0.00 | 0.00 | 0.00 | 72 | 1000.2 |
| 20260505075602 | 17 | 209 | 9.7 | 24.1 | 0.00 | 0.00 | 0.00 | 72 | 1002.5 |
| 20260505075525 | 17 | 178 | 0.0 | 4.8 | 0.00 | 0.00 | 0.00 | 72 | 1000.0 |
| 20260505075058 | 17 | 241 | 11.3 | 20.9 | 0.00 | 0.00 | 0.00 | 72 | 1002.4 |
| 20260505075025 | 17 | 200 | 0.0 | 1.6 | 0.00 | 0.00 | 0.00 | 72 | 1000.0 |
| 20260505074600 | 17 | 207 | 9.7 | 22.5 | 0.00 | 0.00 | 0.00 | 72 | 1002.4 |
| 20260505074526 | 17 | 209 | 0.0 | 3.2 | 0.00 | 0.00 | 0.00 | 72 | 999.9 |
| 20260505074059 | 17 | 200 | 11.3 | 22.5 | 0.00 | 0.00 | 0.00 | 72 | 1002.3 |
| 20260505074025 | 17 | 198 | 0.0 | 3.2 | 0.00 | 0.00 | 0.00 | 72 | 999.9 |
| 20260505073557 | 17 | 207 | 9.7 | 17.7 | 0.00 | 0.00 | 0.00 | 72 | 1002.4 |
| 20260505073524 | 17 | 194 | 0.0 | 0.0 | 0.00 | 0.00 | 0.00 | 72 | 1000.0 |
| 20260505073103 | 17 | 219 | 9.7 | 17.7 | 0.00 | 0.00 | 0.00 | 71 | 1002.4 |
| 20260505073023 | 17 | 188 | 0.0 | 0.0 | 0.00 | 0.00 | 0.00 | 72 | 1000.0 |
| 20260505072603 | 17 | 208 | 8.0 | 16.1 | 0.00 | 0.00 | 0.00 | 71 | 1002.4 |
| 20260505072521 | 17 | 200 | 0.0 | 0.0 | 0.00 | 0.00 | 0.00 | 71 | 1000.0 |
| 20260505072100 | 17 | 211 | 6.4 | 16.1 | 0.00 | 0.00 | 0.00 | 71 | 1002.4 |
| 20260505072021 | 17 | 235 | 0.0 | 0.0 | 0.00 | 0.00 | 0.00 | 71 | 1000.1 |
| 20260505071607 | 17 | 219 | 6.4 | 14.5 | 0.00 | 0.00 | 0.00 | 70 | 1002.3 |
| 20260505071521 | 17 | 266 | 0.0 | 0.0 | 0.00 | 0.00 | 0.00 | 71 | 999.9 |
| 20260505071058 | 18 | 246 | 6.4 | 16.1 | 0.00 | 0.00 | 0.00 | 70 | 1002.4 |
| 20260505071022 | 18 | 273 | 0.0 | 0.0 | 0.00 | 0.00 | 0.00 | 71 | 1000.0 |
| 20260505070600 | 18 | 236 | 6.4 | 16.1 | 0.00 | 0.00 | 0.00 | 71 | 1002.5 |
| 20260505070521 | 17 | 273 | 0.0 | 0.0 | 0.00 | 0.00 | 0.00 | 71 | 1000.2 |
| 20260505070100 | 17 | 234 | 4.8 | 12.9 | 0.00 | 0.00 | 0.00 | 71 | 1002.6 |
| 20260505070024 | 17 | 286 | 0.0 | 0.0 | 0.00 | 0.00 | 0.00 | 72 | 1000.3 |
| 20260505065600 | 17 | 230 | 4.8 | 12.9 | 0.00 | 0.00 | 0.00 | 71 | 1002.8 |
| 20260505065519 | 17 | 286 | 0.0 | 0.0 | 0.00 | 0.00 | 0.00 | 72 | 1000.4 |
| 20260505065059 | 17 | 211 | 4.8 | 17.7 | 0.00 | 0.00 | 0.00 | 71 | 1002.8 |
| 20260505065019 | 17 | 286 | 0.0 | 0.0 | 0.00 | 0.00 | 0.00 | 72 | 1000.5 |
| 20260505064603 | 17 | 221 | 6.4 | 17.7 | 0.00 | 0.00 | 0.00 | 71 | 1002.8 |
| 20260505064519 | 17 | 286 | 0.0 | 0.0 | 0.00 | 0.00 | 0.00 | 72 | 1000.5 |
| 20260505064100 | 17 | 194 | 6.4 | 14.5 | 0.00 | 0.00 | 0.00 | 71 | 1002.9 |
| 20260505064019 | 17 | 286 | 0.0 | 0.0 | 0.00 | 0.00 | 0.00 | 72 | 1000.5 |
| 20260505063619 | 17 | 234 | 4.8 | 12.9 | 0.00 | 0.00 | 0.00 | 71 | 1002.9 |
| 20260505063518 | 17 | 291 | 0.0 | 0.0 | 0.00 | 0.00 | 0.00 | 71 | 1000.6 |
| 20260505063100 | 18 | 231 | 4.8 | 12.9 | 0.00 | 0.00 | 0.00 | 70 | 1003.0 |
| 20260505063018 | 18 | 291 | 0.0 | 0.0 | 0.00 | 0.00 | 0.00 | 71 | 1000.6 |
| 20260505062600 | 18 | 266 | 4.8 | 12.9 | 0.00 | 0.00 | 0.00 | 70 | 1003.2 |
| 20260505062517 | 18 | 291 | 0.0 | 0.0 | 0.00 | 0.00 | 0.00 | 71 | 1000.7 |
| 20260505062059 | 18 | 244 | 3.2 | 6.4 | 0.00 | 0.00 | 0.00 | 70 | 1003.4 |
| 20260505062017 | 18 | 291 | 0.0 | 0.0 | 0.00 | 0.00 | 0.00 | 71 | 1000.9 |
| 20260505061602 | 18 | 263 | 1.6 | 6.4 | 0.00 | 0.00 | 0.00 | 69 | 1003.5 |
| 20260505061515 | 18 | 291 | 0.0 | 1.6 | 0.00 | 0.00 | 0.00 | 69 | 1001.1 |
| 20260505061059 | 19 | 309 | 1.6 | 14.5 | 0.00 | 0.00 | 0.00 | 68 | 1003.5 |
| 20260505061013 | 19 | 291 | 0.0 | 1.6 | 0.00 | 0.00 | 0.00 | 68 | 1001.1 |
| 20260505060557 | 19 | 250 | 3.2 | 14.5 | 0.00 | 0.00 | 0.00 | 67 | 1003.4 |
| 20260505060512 | 19 | 294 | 0.0 | 1.6 | 0.00 | 0.00 | 0.00 | 67 | 1001.1 |
| 20260505060013 | 19 | 293 | 0.0 | 6.4 | 0.00 | 0.00 | 0.00 | 66 | 1000.8 |
| 20260505055557 | 20 | 273 | 3.2 | 17.7 | 0.00 | 0.00 | 0.00 | 65 | 1003.4 |
| 20260505055511 | 20 | 293 | 1.6 | 6.4 | 0.00 | 0.00 | 0.00 | 65 | 1000.9 |
| 20260505055058 | 20 | 279 | 4.8 | 24.1 | 0.00 | 0.00 | 0.00 | 64 | 1003.4 |
| 20260505055011 | 20 | 298 | 1.6 | 24.1 | 0.00 | 0.00 | 0.00 | 65 | 1001.1 |
| 20260505054600 | 20 | 263 | 6.4 | 29.0 | 0.00 | 0.00 | 0.00 | 64 | 1003.4 |
| 20260505054511 | 20 | 279 | 3.2 | 24.1 | 0.00 | 0.00 | 0.00 | 65 | 1001.1 |
| 20260505054058 | 20 | 270 | 12.9 | 29.0 | 0.00 | 0.00 | 0.00 | 64 | 1003.5 |
| 20260505054010 | 20 | 263 | 1.6 | 6.4 | 0.00 | 0.00 | 0.00 | 65 | 1000.8 |
| 20260505053557 | 20 | 211 | 14.5 | 29.0 | 0.00 | 0.00 | 0.00 | 64 | 1002.6 |
| 20260505053511 | 20 | 220 | 1.6 | 6.4 | 0.00 | 0.00 | 0.00 | 65 | 1000.1 |
| 20260505053108 | 20 | 194 | 9.7 | 29.0 | 0.00 | 0.00 | 0.00 | 64 | 1002.5 |
| 20260505053014 | 20 | 192 | 0.0 | 6.4 | 0.00 | 0.00 | 0.00 | 65 | 1000.0 |
| 20260505052602 | 20 | 198 | 16.1 | 27.4 | 0.00 | 0.00 | 0.00 | 64 | 1002.4 |
| 20260505052509 | 20 | 207 | 0.0 | 6.4 | 0.00 | 0.00 | 0.00 | 65 | 1000.0 |
| 20260505052100 | 20 | 202 | 16.1 | 32.2 | 0.00 | 0.00 | 0.00 | 64 | 1002.3 |
| 20260505052009 | 20 | 199 | 0.0 | 6.4 | 0.00 | 0.00 | 0.00 | 65 | 999.9 |
| 20260505051559 | 20 | 205 | 16.1 | 32.2 | 0.00 | 0.00 | 0.00 | 65 | 1002.3 |
| 20260505051509 | 20 | 202 | 1.6 | 6.4 | 0.00 | 0.00 | 0.00 | 65 | 1000.0 |
| 20260505051102 | 20 | 211 | 17.7 | 30.6 | 0.00 | 0.00 | 0.00 | 65 | 1002.4 |
| 20260505051009 | 20 | 208 | 1.6 | 6.4 | 0.00 | 0.00 | 0.00 | 65 | 1000.0 |
| 20260505050557 | 20 | 209 | 16.1 | 32.2 | 0.00 | 0.00 | 0.00 | 64 | 1002.3 |
| 20260505050511 | 20 | 203 | 1.6 | 6.4 | 0.00 | 0.00 | 0.00 | 65 | 1000.0 |
| 20260505041604 | 20 | 213 | 3.2 | 8.0 | 0.00 | 0.00 | 0.00 | 65 | 1000.4 |
| 20260505041602 | 20 | 199 | 16.1 | 33.8 | 0.00 | 0.00 | 0.00 | 65 | 1002.7 |
| 20260505041058 | 20 | 200 | 14.5 | 25.7 | 0.00 | 0.00 | 0.00 | 65 | 1002.8 |
| 20260505041056 | 20 | 209 | 1.6 | 9.7 | 0.00 | 0.00 | 0.00 | 66 | 1000.5 |
| 20260505040604 | 20 | 161 | 12.9 | 29.0 | 0.00 | 0.00 | 0.00 | 66 | 1002.7 |
| 20260505040556 | 20 | 163 | 1.6 | 9.7 | 0.00 | 0.00 | 0.00 | 66 | 1000.4 |
| 20260505035600 | 19 | 190 | 12.9 | 29.0 | 0.00 | 0.00 | 0.00 | 66 | 1002.8 |
| 20260505035555 | 19 | 220 | 1.6 | 6.4 | 0.00 | 0.00 | 0.00 | 66 | 1000.5 |
| 20260505035057 | 19 | 189 | 12.9 | 29.0 | 0.00 | 0.00 | 0.00 | 66 | 1002.8 |
| 20260505034601 | 19 | 197 | 14.5 | 25.7 | 0.00 | 0.00 | 0.00 | 65 | 1003.0 |
| 20260505034556 | 19 | 216 | 1.6 | 9.7 | 0.00 | 0.00 | 0.00 | 66 | 1000.6 |
| 20260505034100 | 19 | 203 | 12.9 | 25.7 | 0.00 | 0.00 | 0.00 | 65 | 1003.0 |
| 20260505034054 | 19 | 199 | 1.6 | 6.4 | 0.00 | 0.00 | 0.00 | 65 | 1000.6 |
| 20260505033558 | 19 | 211 | 11.3 | 24.1 | 0.00 | 0.00 | 0.00 | 65 | 1003.0 |
| 20260505033554 | 19 | 209 | 0.0 | 8.0 | 0.00 | 0.00 | 0.00 | 65 | 1000.7 |
| 20260505033114 | 20 | 195 | 12.9 | 27.4 | 0.00 | 0.00 | 0.00 | 65 | 1003.2 |
| 20260505033101 | 20 | 186 | 1.6 | 8.0 | 0.00 | 0.00 | 0.00 | 65 | 1000.8 |
| 20260505032558 | 20 | 194 | 14.5 | 27.4 | 0.00 | 0.00 | 0.00 | 64 | 1003.2 |
| 20260505032554 | 20 | 152 | 1.6 | 8.0 | 0.00 | 0.00 | 0.00 | 65 | 1000.9 |
| 20260505032101 | 20 | 195 | 11.3 | 20.9 | 0.00 | 0.00 | 0.00 | 65 | 1003.3 |
| 20260505032056 | 20 | 192 | 0.0 | 4.8 | 0.00 | 0.00 | 0.00 | 65 | 1000.9 |
| 20260505031600 | 20 | 206 | 9.7 | 19.3 | 0.00 | 0.00 | 0.00 | 64 | 1003.2 |
| 20260505031556 | 20 | 210 | 0.0 | 4.8 | 0.00 | 0.00 | 0.00 | 64 | 1000.9 |
| 20260505031102 | 20 | 219 | 11.3 | 19.3 | 0.00 | 0.00 | 0.00 | 64 | 1003.3 |
| 20260505031052 | 20 | 194 | 0.0 | 9.7 | 0.00 | 0.00 | 0.00 | 64 | 1001.0 |
| 20260505030601 | 20 | 182 | 11.3 | 19.3 | 0.00 | 0.00 | 0.00 | 63 | 1003.4 |
| 20260505030558 | 20 | 209 | 0.0 | 9.7 | 0.00 | 0.00 | 0.00 | 63 | 1001.1 |
| 20260505030054 | 20 | 198 | 0.0 | 9.7 | 0.00 | 0.00 | 0.00 | 64 | 1001.1 |
| 20260505025559 | 20 | 180 | 14.5 | 24.1 | 0.00 | 0.00 | 0.00 | 63 | 1003.3 |
| 20260505025551 | 20 | 182 | 0.0 | 4.8 | 0.00 | 0.00 | 0.00 | 63 | 1001.2 |
| 20260505025059 | 20 | 171 | 11.3 | 29.0 | 0.00 | 0.00 | 0.00 | 63 | 1003.5 |
| 20260505025051 | 20 | 194 | 0.0 | 4.8 | 0.00 | 0.00 | 0.00 | 63 | 1001.2 |
| 20260505024613 | 20 | 193 | 14.5 | 32.2 | 0.00 | 0.00 | 0.00 | 62 | 1003.4 |
| 20260505024553 | 20 | 196 | 0.0 | 4.8 | 0.00 | 0.00 | 0.00 | 63 | 1001.1 |
| 20260505024100 | 20 | 180 | 14.5 | 32.2 | 0.00 | 0.00 | 0.00 | 62 | 1003.4 |
| 20260505024051 | 20 | 188 | 0.0 | 9.7 | 0.00 | 0.00 | 0.00 | 62 | 1001.1 |
| 20260505023602 | 20 | 180 | 16.1 | 27.4 | 0.00 | 0.00 | 0.00 | 61 | 1003.3 |
| 20260505023551 | 20 | 232 | 1.6 | 9.7 | 0.00 | 0.00 | 0.00 | 62 | 1001.1 |
| 20260505023108 | 20 | 187 | 14.5 | 32.2 | 0.00 | 0.00 | 0.00 | 61 | 1003.3 |
| 20260505023051 | 20 | 216 | 0.0 | 8.0 | 0.00 | 0.00 | 0.00 | 61 | 1001.1 |
| 20260505022600 | 20 | 217 | 16.1 | 33.8 | 0.00 | 0.00 | 0.00 | 60 | 1003.4 |
| 20260505022551 | 20 | 187 | 0.0 | 9.7 | 0.00 | 0.00 | 0.00 | 61 | 1001.1 |
| 20260505022104 | 20 | 202 | 16.1 | 33.8 | 0.00 | 0.00 | 0.00 | 60 | 1003.4 |
| 20260505022055 | 20 | 227 | 1.6 | 9.7 | 0.00 | 0.00 | 0.00 | 60 | 1001.0 |
| 20260505021559 | 20 | 204 | 16.1 | 33.8 | 0.00 | 0.00 | 0.00 | 59 | 1003.3 |
| 20260505021551 | 20 | 225 | 1.6 | 9.7 | 0.00 | 0.00 | 0.00 | 60 | 1001.1 |
| 20260505021059 | 20 | 190 | 17.7 | 33.8 | 0.00 | 0.00 | 0.00 | 59 | 1003.3 |
| 20260505021050 | 21 | 196 | 1.6 | 8.0 | 0.00 | 0.00 | 0.00 | 59 | 1001.1 |
| 20260505020559 | 21 | 198 | 16.1 | 33.8 | 0.00 | 0.00 | 0.00 | 58 | 1003.3 |
| 20260505020550 | 21 | 209 | 1.6 | 9.7 | 0.00 | 0.00 | 0.00 | 58 | 1001.1 |
| 20260505020050 | 21 | 214 | 3.2 | 9.7 | 0.00 | 0.00 | 0.00 | 57 | 1001.1 |
| 20260505015559 | 21 | 190 | 14.5 | 27.4 | 0.00 | 0.00 | 0.00 | 56 | 1003.3 |
| 20260505015550 | 21 | 171 | 0.0 | 8.0 | 0.00 | 0.00 | 0.00 | 56 | 1001.0 |
| 20260505015059 | 21 | 195 | 16.1 | 27.4 | 0.00 | 0.00 | 0.00 | 55 | 1003.3 |
| 20260505015050 | 21 | 206 | 1.6 | 9.7 | 0.00 | 0.00 | 0.00 | 56 | 1001.0 |
| 20260505014604 | 21 | 212 | 12.9 | 25.7 | 0.00 | 0.00 | 0.00 | 55 | 1003.3 |
| 20260505014550 | 21 | 213 | 0.0 | 6.4 | 0.00 | 0.00 | 0.00 | 55 | 1001.0 |
| 20260505014059 | 21 | 209 | 11.3 | 29.0 | 0.00 | 0.00 | 0.00 | 55 | 1003.3 |
| 20260505014049 | 21 | 213 | 0.0 | 4.8 | 0.00 | 0.00 | 0.00 | 55 | 1001.1 |
| 20260505013559 | 21 | 232 | 12.9 | 29.0 | 0.00 | 0.00 | 0.00 | 54 | 1003.4 |
| 20260505013549 | 21 | 217 | 0.0 | 8.0 | 0.00 | 0.00 | 0.00 | 55 | 1001.0 |
| 20260505013110 | 21 | 234 | 11.3 | 25.7 | 0.00 | 0.00 | 0.00 | 54 | 1003.2 |
| 20260505013049 | 21 | 200 | 0.0 | 4.8 | 0.00 | 0.00 | 0.00 | 55 | 1000.9 |
| 20260505012600 | 21 | 185 | 11.3 | 25.7 | 0.00 | 0.00 | 0.00 | 54 | 1003.1 |
| 20260505012551 | 21 | 197 | 0.0 | 4.8 | 0.00 | 0.00 | 0.00 | 55 | 1000.9 |
| 20260505012100 | 21 | 211 | 9.7 | 22.5 | 0.00 | 0.00 | 0.00 | 54 | 1002.9 |
| 20260505012049 | 21 | 211 | 0.0 | 3.2 | 0.00 | 0.00 | 0.00 | 54 | 1000.7 |
| 20260505011602 | 21 | 196 | 11.3 | 22.5 | 0.00 | 0.00 | 0.00 | 53 | 1002.9 |
| 20260505011549 | 21 | 202 | 0.0 | 4.8 | 0.00 | 0.00 | 0.00 | 54 | 1000.6 |
| 20260505011100 | 21 | 242 | 9.7 | 20.9 | 0.00 | 0.00 | 0.00 | 53 | 1002.7 |
| 20260505011049 | 21 | 190 | 0.0 | 4.8 | 0.00 | 0.00 | 0.00 | 54 | 1000.5 |
| 20260505010600 | 21 | 219 | 8.0 | 27.4 | 0.00 | 0.00 | 0.00 | 53 | 1002.7 |
| 20260505010548 | 21 | 188 | 0.0 | 3.2 | 0.00 | 0.00 | 0.00 | 53 | 1000.5 |
| 20260505010058 | 22 | 229 | 0.0 | 3.2 | 0.00 | 0.00 | 0.00 | 52 | 1000.4 |
| 20260505005600 | 22 | 210 | 11.3 | 33.8 | 0.00 | 0.00 | 0.00 | 52 | 1002.6 |
| 20260505005548 | 22 | 204 | 0.0 | 4.8 | 0.00 | 0.00 | 0.00 | 52 | 1000.4 |
| 20260505005100 | 22 | 207 | 12.9 | 33.8 | 0.00 | 0.00 | 0.00 | 51 | 1002.6 |
| 20260505005048 | 22 | 218 | 0.0 | 4.8 | 0.00 | 0.00 | 0.00 | 52 | 1000.3 |
| 20260505004601 | 22 | 199 | 16.1 | 38.6 | 0.00 | 0.00 | 0.00 | 52 | 1002.5 |
| 20260505004548 | 22 | 211 | 0.0 | 4.8 | 0.00 | 0.00 | 0.00 | 52 | 1000.3 |
| 20260505004102 | 22 | 229 | 11.3 | 38.6 | 0.00 | 0.00 | 0.00 | 52 | 1002.5 |
| 20260505004048 | 22 | 239 | 0.0 | 4.8 | 0.00 | 0.00 | 0.00 | 52 | 1000.3 |
| 20260505003559 | 22 | 239 | 16.1 | 38.6 | 0.00 | 0.00 | 0.00 | 51 | 1002.4 |
| 20260505003550 | 22 | 205 | 1.6 | 4.8 | 0.00 | 0.00 | 0.00 | 51 | 1000.2 |
| 20260505003104 | 22 | 206 | 16.1 | 33.8 | 0.00 | 0.00 | 0.00 | 51 | 1002.3 |
| 20260505003046 | 22 | 246 | 0.0 | 6.4 | 0.00 | 0.00 | 0.00 | 51 | 1000.2 |
| 20260505002559 | 22 | 236 | 17.7 | 33.8 | 0.00 | 0.00 | 0.00 | 51 | 1002.3 |
| 20260505002546 | 22 | 250 | 1.6 | 6.4 | 0.00 | 0.00 | 0.00 | 51 | 1000.1 |
| 20260505002059 | 22 | 200 | 11.3 | 33.8 | 0.00 | 0.00 | 0.00 | 51 | 1002.4 |
| 20260505002047 | 22 | 219 | 0.0 | 22.5 | 0.00 | 0.00 | 0.00 | 51 | 1000.1 |
| 20260505001558 | 22 | 247 | 17.7 | 38.6 | 0.00 | 0.00 | 0.00 | 51 | 1002.2 |
| 20260505001547 | 22 | 277 | 3.2 | 22.5 | 0.00 | 0.00 | 0.00 | 51 | 1000.0 |
| 20260505001103 | 22 | 234 | 17.7 | 49.9 | 0.00 | 0.00 | 0.00 | 50 | 1002.2 |
| 20260505001046 | 22 | 196 | 1.6 | 14.5 | 0.00 | 0.00 | 0.00 | 51 | 1000.0 |
| 20260505000601 | 22 | 211 | 22.5 | 51.5 | 0.00 | 0.00 | 0.00 | 50 | 1002.2 |
| 20260505000546 | 22 | 230 | 4.8 | 14.5 | 0.00 | 0.00 | 0.00 | 50 | 1000.0 |
| 20260505000056 | 22 | 209 | 3.2 | 9.7 | 0.00 | 0.00 | 0.00 | 50 | 1000.0 |
| 20260504235559 | 22 | 220 | 16.1 | 33.8 | 0.00 | 0.00 | 0.00 | 51 | 1002.2 |
| 20260504235545 | 22 | 241 | 0.0 | 8.0 | 0.00 | 0.00 | 0.00 | 51 | 1000.0 |
| 20260504235102 | 23 | 227 | 17.7 | 41.8 | 0.00 | 0.00 | 0.00 | 50 | 1002.2 |
| 20260504235048 | 22 | 227 | 1.6 | 8.0 | 0.00 | 0.00 | 0.00 | 50 | 1000.1 |
| 20260504234624 | 23 | 212 | 16.1 | 41.8 | 0.00 | 0.00 | 0.00 | 50 | 1002.2 |
| 20260504234545 | 23 | 236 | 1.6 | 12.9 | 0.00 | 0.00 | 0.00 | 50 | 1000.0 |
| 20260504234059 | 23 | 232 | 27.4 | 41.8 | 0.00 | 0.00 | 0.00 | 49 | 1002.0 |
| 20260504234048 | 23 | 241 | 4.8 | 12.9 | 0.00 | 0.00 | 0.00 | 50 | 999.9 |
| 20260504233600 | 23 | 236 | 17.7 | 40.2 | 0.00 | 0.00 | 0.00 | 51 | 1001.9 |
| 20260504233545 | 23 | 236 | 1.6 | 6.4 | 0.00 | 0.00 | 0.00 | 51 | 999.7 |
| 20260504233100 | 23 | 219 | 16.1 | 49.9 | 0.00 | 0.00 | 0.00 | 50 | 1001.9 |
| 20260504233044 | 23 | 244 | 1.6 | 8.0 | 0.00 | 0.00 | 0.00 | 51 | 999.5 |
| 20260504232600 | 23 | 243 | 17.7 | 49.9 | 0.00 | 0.00 | 0.00 | 50 | 1001.8 |
| 20260504232543 | 23 | 230 | 1.6 | 12.9 | 0.00 | 0.00 | 0.00 | 50 | 999.6 |
| 20260504232059 | 23 | 209 | 24.1 | 49.9 | 0.00 | 0.00 | 0.00 | 50 | 1001.9 |
| 20260504232044 | 23 | 217 | 3.2 | 12.9 | 0.00 | 0.00 | 0.00 | 50 | 999.6 |
| 20260504231606 | 23 | 239 | 19.3 | 35.4 | 0.00 | 0.00 | 0.00 | 50 | 1001.9 |
| 20260504231542 | 23 | 226 | 1.6 | 8.0 | 0.00 | 0.00 | 0.00 | 50 | 999.6 |
| 20260504231059 | 23 | 243 | 17.7 | 43.5 | 0.00 | 0.00 | 0.00 | 50 | 1001.9 |
| 20260504231044 | 23 | 258 | 0.0 | 9.7 | 0.00 | 0.00 | 0.00 | 50 | 999.6 |
| 20260504230604 | 23 | 214 | 19.3 | 43.5 | 0.00 | 0.00 | 0.00 | 49 | 1001.8 |
| 20260504230543 | 23 | 250 | 1.6 | 14.5 | 0.00 | 0.00 | 0.00 | 50 | 999.4 |
| 20260504230101 | 23 | 205 | 22.5 | 41.8 | 0.00 | 0.00 | 0.00 | 50 | 1001.7 |
| 20260504230043 | 23 | 244 | 1.6 | 12.9 | 0.00 | 0.00 | 0.00 | 51 | 999.5 |
| 20260504225559 | 23 | 214 | 24.1 | 41.8 | 0.00 | 0.00 | 0.00 | 51 | 1001.8 |
| 20260504225542 | 23 | 236 | 3.2 | 12.9 | 0.00 | 0.00 | 0.00 | 51 | 999.4 |
| 20260504225059 | 23 | 193 | 17.7 | 38.6 | 0.00 | 0.00 | 0.00 | 52 | 1001.7 |
| 20260504225042 | 23 | 227 | 0.0 | 8.0 | 0.00 | 0.00 | 0.00 | 52 | 999.4 |
| 20260504224606 | 23 | 188 | 19.3 | 35.4 | 0.00 | 0.00 | 0.00 | 52 | 1001.6 |
| 20260504224541 | 23 | 253 | 1.6 | 11.3 | 0.00 | 0.00 | 0.00 | 53 | 999.4 |
| 20260504224059 | 23 | 211 | 16.1 | 32.2 | 0.00 | 0.00 | 0.00 | 52 | 1001.7 |
| 20260504224042 | 23 | 215 | 1.6 | 11.3 | 0.00 | 0.00 | 0.00 | 53 | 999.5 |
| 20260504223559 | 23 | 214 | 12.9 | 35.4 | 0.00 | 0.00 | 0.00 | 52 | 1001.7 |
| 20260504223542 | 23 | 209 | 0.0 | 8.0 | 0.00 | 0.00 | 0.00 | 53 | 999.4 |
| 20260504223057 | 23 | 207 | 17.7 | 35.4 | 0.00 | 0.00 | 0.00 | 51 | 1001.7 |
| 20260504223040 | 23 | 228 | 1.6 | 8.0 | 0.00 | 0.00 | 0.00 | 51 | 999.5 |
| 20260504222600 | 24 | 229 | 17.7 | 41.8 | 0.00 | 0.00 | 0.00 | 51 | 1001.8 |
| 20260504222539 | 24 | 247 | 3.2 | 11.3 | 0.00 | 0.00 | 0.00 | 52 | 999.6 |
| 20260504222102 | 24 | 233 | 20.9 | 41.8 | 0.00 | 0.00 | 0.00 | 52 | 1001.9 |
| 20260504222038 | 24 | 241 | 1.6 | 11.3 | 0.00 | 0.00 | 0.00 | 52 | 999.7 |
| 20260504221606 | 24 | 205 | 19.3 | 41.8 | 0.00 | 0.00 | 0.00 | 51 | 1002.0 |
| 20260504221541 | 24 | 215 | 3.2 | 11.3 | 0.00 | 0.00 | 0.00 | 52 | 999.8 |
| 20260504221102 | 23 | 197 | 17.7 | 40.2 | 0.00 | 0.00 | 0.00 | 51 | 1002.0 |
| 20260504221038 | 23 | 209 | 3.2 | 12.9 | 0.00 | 0.00 | 0.00 | 52 | 999.7 |
| 20260504220637 | 24 | 248 | 1.6 | 12.9 | 0.00 | 0.00 | 0.00 | 52 | 999.8 |
| 20260504220600 | 24 | 262 | 22.5 | 41.8 | 0.00 | 0.00 | 0.00 | 51 | 1002.0 |
| 20260504220100 | 24 | 168 | 19.3 | 48.3 | 0.00 | 0.00 | 0.00 | 51 | 1002.1 |
| 20260504220046 | 24 | 224 | 1.6 | 8.0 | 0.00 | 0.00 | 0.00 | 52 | 999.8 |
| 20260504215600 | 24 | 225 | 20.9 | 48.3 | 0.00 | 0.00 | 0.00 | 52 | 1002.0 |
| 20260504215537 | 24 | 242 | 3.2 | 12.9 | 0.00 | 0.00 | 0.00 | 52 | 999.8 |
| 20260504215057 | 24 | 216 | 24.1 | 49.9 | 0.00 | 0.00 | 0.00 | 51 | 1002.2 |
| 20260504215039 | 24 | 215 | 4.8 | 12.9 | 0.00 | 0.00 | 0.00 | 51 | 999.9 |
| 20260504214602 | 24 | 210 | 20.9 | 49.9 | 0.00 | 0.00 | 0.00 | 52 | 1002.2 |
| 20260504214537 | 24 | 207 | 3.2 | 12.9 | 0.00 | 0.00 | 0.00 | 52 | 999.9 |
| 20260504214059 | 24 | 195 | 24.1 | 37.0 | 0.00 | 0.00 | 0.00 | 52 | 1002.2 |
| 20260504214035 | 24 | 250 | 4.8 | 12.9 | 0.00 | 0.00 | 0.00 | 52 | 999.8 |
| 20260504213559 | 24 | 223 | 16.1 | 43.5 | 0.00 | 0.00 | 0.00 | 52 | 1002.3 |
| 20260504213535 | 24 | 217 | 1.6 | 8.0 | 0.00 | 0.00 | 0.00 | 53 | 999.9 |
| 20260504213105 | 23 | 209 | 17.7 | 48.3 | 0.00 | 0.00 | 0.00 | 53 | 1002.3 |
| 20260504213045 | 23 | 236 | 1.6 | 14.5 | 0.00 | 0.00 | 0.00 | 54 | 1000.0 |
| 20260504212559 | 23 | 259 | 22.5 | 48.3 | 0.00 | 0.00 | 0.00 | 54 | 1002.2 |
| 20260504212535 | 23 | 229 | 3.2 | 11.3 | 0.00 | 0.00 | 0.00 | 54 | 999.9 |
| 20260504212150 | 23 | 207 | 20.9 | 37.0 | 0.00 | 0.00 | 0.00 | 54 | 1002.4 |
| 20260504212035 | 23 | 237 | 3.2 | 11.3 | 0.00 | 0.00 | 0.00 | 55 | 1000.0 |
| 20260504211604 | 23 | 216 | 17.7 | 30.6 | 0.00 | 0.00 | 0.00 | 53 | 1002.4 |
| 20260504211540 | 23 | 200 | 1.6 | 11.3 | 0.00 | 0.00 | 0.00 | 53 | 1000.0 |
| 20260504211059 | 23 | 208 | 17.7 | 32.2 | 0.00 | 0.00 | 0.00 | 52 | 1002.4 |
| 20260504211034 | 23 | 237 | 0.0 | 11.3 | 0.00 | 0.00 | 0.00 | 52 | 1000.1 |
| 20260504210558 | 23 | 207 | 16.1 | 40.2 | 0.00 | 0.00 | 0.00 | 53 | 1002.5 |
| 20260504210533 | 23 | 233 | 1.6 | 9.7 | 0.00 | 0.00 | 0.00 | 52 | 1000.1 |
| 20260504210104 | 23 | 250 | 19.3 | 40.2 | 0.00 | 0.00 | 0.00 | 52 | 1002.6 |
| 20260504210033 | 23 | 245 | 1.6 | 11.3 | 0.00 | 0.00 | 0.00 | 53 | 1000.2 |
| 20260504205604 | 23 | 178 | 17.7 | 35.4 | 0.00 | 0.00 | 0.00 | 53 | 1002.6 |
| 20260504205531 | 23 | 250 | 1.6 | 9.7 | 0.00 | 0.00 | 0.00 | 54 | 1000.2 |
| 20260504205103 | 23 | 232 | 16.1 | 35.4 | 0.00 | 0.00 | 0.00 | 52 | 1002.5 |
| 20260504205031 | 23 | 209 | 1.6 | 11.3 | 0.00 | 0.00 | 0.00 | 53 | 1000.3 |
| 20260504204646 | 24 | 240 | 3.2 | 12.9 | 0.00 | 0.00 | 0.00 | 52 | 1000.4 |
| 20260504204637 | 24 | 255 | 20.9 | 41.8 | 0.00 | 0.00 | 0.00 | 51 | 1002.7 |
| 20260504204059 | 24 | 180 | 17.7 | 41.8 | 0.00 | 0.00 | 0.00 | 53 | 1002.6 |
| 20260504204029 | 24 | 183 | 1.6 | 12.9 | 0.00 | 0.00 | 0.00 | 53 | 1000.3 |
| 20260504203559 | 24 | 209 | 20.9 | 40.2 | 0.00 | 0.00 | 0.00 | 53 | 1002.7 |
| 20260504203527 | 24 | 213 | 3.2 | 9.7 | 0.00 | 0.00 | 0.00 | 54 | 1000.5 |
| 20260504203059 | 23 | 188 | 17.7 | 40.2 | 0.00 | 0.00 | 0.00 | 53 | 1002.8 |
| 20260504203026 | 23 | 214 | 3.2 | 11.3 | 0.00 | 0.00 | 0.00 | 53 | 1000.6 |
| 20260504202559 | 23 | 221 | 19.3 | 43.5 | 0.00 | 0.00 | 0.00 | 53 | 1003.0 |
| 20260504202534 | 23 | 217 | 3.2 | 11.3 | 0.00 | 0.00 | 0.00 | 54 | 1000.9 |
| 20260504202059 | 23 | 219 | 22.5 | 43.5 | 0.00 | 0.00 | 0.00 | 53 | 1003.1 |
| 20260504202024 | 23 | 216 | 4.8 | 11.3 | 0.00 | 0.00 | 0.00 | 53 | 1000.8 |
| 20260504201559 | 23 | 174 | 16.1 | 43.5 | 0.00 | 0.00 | 0.00 | 54 | 1003.1 |
| 20260504201523 | 23 | 217 | 1.6 | 8.0 | 0.00 | 0.00 | 0.00 | 54 | 1000.8 |
| 20260504201059 | 23 | 196 | 17.7 | 43.5 | 0.00 | 0.00 | 0.00 | 54 | 1003.3 |
| 20260504201023 | 23 | 240 | 1.6 | 12.9 | 0.00 | 0.00 | 0.00 | 54 | 1001.0 |
| 20260504200559 | 23 | 211 | 20.9 | 37.0 | 0.00 | 0.00 | 0.00 | 54 | 1003.2 |
| 20260504200522 | 23 | 192 | 3.2 | 12.9 | 0.00 | 0.00 | 0.00 | 54 | 1001.1 |
| 20260504200021 | 22 | 235 | 3.2 | 9.7 | 0.00 | 0.00 | 0.00 | 53 | 1001.2 |
| 20260504195559 | 23 | 248 | 17.7 | 45.1 | 0.00 | 0.00 | 0.00 | 50 | 1003.5 |
| 20260504195520 | 23 | 237 | 1.6 | 14.5 | 0.00 | 0.00 | 0.00 | 52 | 1001.3 |
| 20260504195101 | 23 | 205 | 24.1 | 43.5 | 0.00 | 0.00 | 0.00 | 51 | 1003.6 |
| 20260504195020 | 23 | 211 | 4.8 | 14.5 | 0.00 | 0.00 | 0.00 | 51 | 1001.3 |
| 20260504194558 | 23 | 205 | 16.1 | 33.8 | 0.00 | 0.00 | 0.00 | 51 | 1003.5 |
| 20260504194519 | 23 | 223 | 1.6 | 8.0 | 0.00 | 0.00 | 0.00 | 51 | 1001.4 |
| 20260504194101 | 23 | 215 | 14.5 | 33.8 | 0.00 | 0.00 | 0.00 | 51 | 1003.6 |
| 20260504194019 | 23 | 236 | 0.0 | 11.3 | 0.00 | 0.00 | 0.00 | 52 | 1001.5 |
| 20260504193601 | 23 | 207 | 19.3 | 38.6 | 0.00 | 0.00 | 0.00 | 49 | 1003.8 |
| 20260504193518 | 23 | 205 | 3.2 | 14.5 | 0.00 | 0.00 | 0.00 | 49 | 1001.7 |
| 20260504193100 | 23 | 208 | 19.3 | 38.6 | 0.00 | 0.00 | 0.00 | 48 | 1003.9 |
| 20260504193017 | 23 | 232 | 1.6 | 14.5 | 0.00 | 0.00 | 0.00 | 48 | 1001.7 |
| 20260504192559 | 23 | 209 | 19.3 | 46.7 | 0.00 | 0.00 | 0.00 | 49 | 1003.9 |
| 20260504192515 | 23 | 227 | 1.6 | 14.5 | 0.00 | 0.00 | 0.00 | 50 | 1001.8 |
| 20260504192058 | 23 | 208 | 19.3 | 46.7 | 0.00 | 0.00 | 0.00 | 48 | 1004.0 |
| 20260504192015 | 23 | 255 | 3.2 | 12.9 | 0.00 | 0.00 | 0.00 | 49 | 1001.9 |
| 20260504191559 | 23 | 192 | 16.1 | 37.0 | 0.00 | 0.00 | 0.00 | 46 | 1004.0 |
| 20260504191514 | 23 | 232 | 3.2 | 12.9 | 0.00 | 0.00 | 0.00 | 49 | 1002.0 |
| 20260504191100 | 23 | 186 | 17.7 | 37.0 | 0.00 | 0.00 | 0.00 | 47 | 1004.1 |
| 20260504191012 | 23 | 204 | 3.2 | 11.3 | 0.00 | 0.00 | 0.00 | 49 | 1002.1 |
| 20260504190600 | 23 | 218 | 19.3 | 48.3 | 0.00 | 0.00 | 0.00 | 46 | 1004.1 |
| 20260504190514 | 23 | 183 | 4.8 | 11.3 | 0.00 | 0.00 | 0.00 | 48 | 1002.1 |
| 20260504190012 | 23 | 176 | 4.8 | 11.3 | 0.00 | 0.00 | 0.00 | 48 | 1002.2 |
| 20260504185558 | 23 | 195 | 17.7 | 40.2 | 0.00 | 0.00 | 0.00 | 47 | 1004.4 |
| 20260504185510 | 23 | 223 | 3.2 | 11.3 | 0.00 | 0.00 | 0.00 | 49 | 1002.2 |
| 20260504185100 | 23 | 207 | 19.3 | 38.6 | 0.00 | 0.00 | 0.00 | 49 | 1004.3 |
| 20260504185012 | 23 | 248 | 1.6 | 14.5 | 0.00 | 0.00 | 0.00 | 49 | 1002.2 |
| 20260504184605 | 22 | 205 | 20.9 | 38.6 | 0.00 | 0.00 | 0.00 | 49 | 1004.4 |
| 20260504184509 | 22 | 224 | 3.2 | 16.1 | 0.00 | 0.00 | 0.00 | 50 | 1002.3 |
| 20260504184100 | 23 | 211 | 17.7 | 35.4 | 0.00 | 0.00 | 0.00 | 48 | 1004.4 |
| 20260504184013 | 23 | 194 | 1.6 | 16.1 | 0.00 | 0.00 | 0.00 | 48 | 1002.3 |
| 20260504183600 | 22 | 223 | 17.7 | 35.4 | 0.00 | 0.00 | 0.00 | 49 | 1004.6 |
| 20260504183508 | 22 | 178 | 3.2 | 17.7 | 0.00 | 0.00 | 0.00 | 49 | 1002.4 |
| 20260504183101 | 22 | 190 | 19.3 | 33.8 | 0.00 | 0.00 | 0.00 | 51 | 1004.7 |
| 20260504183006 | 22 | 232 | 3.2 | 17.7 | 0.00 | 0.00 | 0.00 | 51 | 1002.6 |
| 20260504182559 | 22 | 182 | 19.3 | 40.2 | 0.00 | 0.00 | 0.00 | 50 | 1004.8 |
| 20260504182505 | 22 | 200 | 3.2 | 17.7 | 0.00 | 0.00 | 0.00 | 49 | 1002.6 |
| 20260504182059 | 22 | 210 | 19.3 | 40.2 | 0.00 | 0.00 | 0.00 | 47 | 1004.9 |
| 20260504182003 | 22 | 232 | 4.8 | 17.7 | 0.00 | 0.00 | 0.00 | 49 | 1002.6 |
| 20260504181559 | 22 | 153 | 19.3 | 33.8 | 0.00 | 0.00 | 0.00 | 50 | 1005.0 |
| 20260504181503 | 22 | 157 | 4.8 | 16.1 | 0.00 | 0.00 | 0.00 | 51 | 1002.7 |
| 20260504181103 | 22 | 165 | 16.1 | 32.2 | 0.00 | 0.00 | 0.00 | 53 | 1005.0 |
| 20260504181002 | 22 | 196 | 1.6 | 12.9 | 0.00 | 0.00 | 0.00 | 54 | 1002.7 |
| 20260504180601 | 22 | 187 | 16.1 | 37.0 | 0.00 | 0.00 | 0.00 | 50 | 1005.0 |
| 20260504180501 | 22 | 204 | 3.2 | 14.5 | 0.00 | 0.00 | 0.00 | 52 | 1002.7 |
| 20260504180140 | 22 | 215 | 3.2 | 14.5 | 0.00 | 0.00 | 0.00 | 52 | 1002.8 |
| 20260504180101 | 22 | 188 | 16.1 | 37.0 | 0.00 | 0.00 | 0.00 | 51 | 1005.2 |
| 20260504175604 | 22 | 199 | 12.9 | 29.0 | 0.00 | 0.00 | 0.00 | 54 | 1005.3 |
| 20260504175559 | 22 | 228 | 1.6 | 9.7 | 0.00 | 0.00 | 0.00 | 54 | 1002.9 |
| 20260504175058 | 22 | 200 | 17.7 | 35.4 | 0.00 | 0.00 | 0.00 | 53 | 1005.4 |
| 20260504174559 | 22 | 197 | 17.7 | 35.4 | 0.00 | 0.00 | 0.00 | 52 | 1005.4 |
| 20260504174557 | 22 | 186 | 1.6 | 11.3 | 0.00 | 0.00 | 0.00 | 53 | 1003.1 |
| 20260504174100 | 22 | 223 | 16.1 | 37.0 | 0.00 | 0.00 | 0.00 | 53 | 1005.4 |
| 20260504174056 | 22 | 229 | 1.6 | 12.9 | 0.00 | 0.00 | 0.00 | 53 | 1003.2 |
| 20260504173559 | 22 | 212 | 16.1 | 37.0 | 0.00 | 0.00 | 0.00 | 52 | 1005.4 |
| 20260504173555 | 22 | 208 | 3.2 | 12.9 | 0.00 | 0.00 | 0.00 | 53 | 1003.2 |